www.pogodaiklimat.ru

Погода и климат >> Архив погоды >> Хорватия >> Split-Marjan


ПОГОДА в Split-Marjan

  • Прогноз погоды в Split-Marjan
  • Монитор погоды в Split-Marjan
  • Климат города

АРХИВ ПОГОДЫ в Split-Marjan

Время (UTC), дата Ветер
(напр.,м/с)
 
Видим.   Явления Облачность Т
(С)
Тd
(С)
f
(%)
Тe
(С)
Тes
(С)
Комфортность P
(гПа)
Po
(гПа)
Тmin
(С)
Tmax
(С)
R
(мм)
R24
(мм)
S
(см)
04 16.01 ЮВ 6 20 км 8/8 1000 м
[Sc]
+8.7 +5.7 81 +5 +5 1016.2 1000.6
05 16.01 ЮВ 6 20 км 8/5 1000 м
[Sc As op]
+8.9 +5.9 81 +5 +5 1015.5 1000.0
06 16.01 СВ 5 25 км слабый дождь 8/6 1230 м
[Cu Sc As op]
+8.7 +6.1 84 +5 +5 1015.1 999.6 +7.9 0.0
08 16.01 ЮВ 4 25 км в посл. час дождь 8/6 600 м
[Cu Sc Ac trans]
+9.3 +7.9 91 +6 +7 1014.6 999.1
07 16.01 С 3 10 км дождь {ливн. осадки} 10/8 600 м
[Cu Sc As op]
+8.0 +6.4 90 +5 +5 1015.2 999.6
09 16.01 ЮВ 6 30 км {ливн. осадки, дождь} 9/5 800 м
[Cu Sc Ac As]
+9.6 +7.9 89 +6 +6 1014.3 998.8
10 16.01 ЮВ 7 35 км 9/6 600 м
[Cu Sc Ac As]
+10.1 +7.8 86 +6 +7 1013.9 998.5
11 16.01 ЮВ 8 30 км 10/8 600 м
[Cu Sc As op]
+10.2 +7.5 83 +6 +6 1012.6 997.2
12 16.01 ЮВ 6 30 км слабый дождь {ливн. осадки} 10/6 800 м
[Cu Sc As op]
+10.3 +7.8 84 +7 +7 1011.9 996.5 10
14 16.01 ЮВ 6 30 км 9/4 1000 м
[Cu Sc Ac As]
+10.6 +7.7 82 +7 +7 1010.7 995.3
13 16.01 Ю 6 25 км в посл. час дождь 9/8 600 м
[Cu Sc Ac trans]
+10.6 +8.1 85 +7 +7 1011.2 995.8
15 16.01 ЮВ 8 30 км {дождь} 9/6 1230 м
[Cu Sc Ac As]
+10.7 +7.5 81 +7 +7 1010.2 994.8
18 16.01 ЮВ 7 20 км 9/5 1230 м
[Cu Sc Ac As]
+11.0 +7.2 77 +8 +8 1009.0 993.7 +11.5 10
19 16.01 ЮВ 6 20 км слабый дождь 10/8 1000 м
[Cu Sc Ac As]
+11.0 +7.6 80 +8 +8 1009.0 993.7
20 16.01 ЮВ 7 20 км слабый дождь 10/8 1000 м
[Cu Sc As op]
+10.2 +7.9 86 +6 +6 1008.7 993.3
21 16.01 ЮВ 6 20 км слабый дождь 10/8 1230 м
[Cu Sc As op]
+10.2 +8.3 88 +7 +7 1008.5 993.1
00 17.01 ЮВ 5 20 км {дождь} 10/8 1230 м
[Cu Sc As op]
+11.2 +8.6 84 +8 +8 1006.8 991.5 3
03 17.01 ЮВ 9 20 км {дождь} 6/3 1230 м
[Cu Sc Ac As]
+11.6 +9.2 85 +8 +8 1003.2 988.0
05 17.01 ЮВ 10
{17}
20 км слабый дождь 10/8 1000 м
[Cu Sc As op]
+11.8 +9.2 84 +8 +8 1001.3 986.1
04 17.01 ЮВ 9
{15}
20 км 8/6 1000 м
[Cu Sc Ac trans]
+11.8 +8.9 82 +8 +8 1001.9 986.7
06 17.01 ЮВ 9
{17}
20 км слабый дождь 10/8 1230 м
[Cu Sc As op]
+11.4 +9.2 86 +8 +8 1000.6 985.4 +10.1 3
07 17.01 ЮВ 9 8000 м слабый дождь 10/8 600 м
[Frnb As op]
+11.0 +9.5 90 +7 +7 999.7 984.5
08 17.01 С 4 30 км слабый дождь 10/8 600 м
[Frnb As op]
+10.8 +9.5 92 +8 +8 998.8 983.6
09 17.01 ЮВ 5 20 км слабый дождь 10/6 800 м
[Frnb As op]
+10.9 +9.6 92 +8 +8 998.0 982.8
11 17.01 СЗ 3 15 км гроза без осадков {дождь} 8/8 600 м
[Cb cap]
+11.9 +10.5 91 +10 +11 995.8 980.7
10 17.01 ЮВ 2 20 км слабый дождь 10/8 600 м
[Frnb As op]
+11.2 +10.1 93 +10 +10 997.2 982.1
12 17.01 СЗ 8
{19}
20 км слабый дождь {гроза} 9/6 800 м
[Cu Sc As op]
+8.8 +5.6 80 +4 +4 996.7 981.4 11
13 17.01 СЗ 4 40 км в посл. час дождь 10/6 600 м
[Cu Sc As op]
+9.4 +6.1 80 +7 +7 997.0 981.8
14 17.01 СЗ 3 40 км 10/6 600 м
[Cu Sc As op]
+9.9 +6.8 81 +8 +8 997.0 981.8
15 17.01 СВ 9 8000 м гроза с градом {дождь} 10/8 800 м
[Cb cap As op]
+8.0 +2.4 68 +3 +3 998.7 983.4
18 17.01 С 5
{24}
20 км {гроза, дождь} 9/6 800 м
[Cu Sc As op]
+7.4 +0.6 62 +4 +4 1002.7 987.3 +12.3 14
20 17.01 С 8
{18}
20 км 10/5 1000 м
[Sc As op]
+7.2 -1.6 54 +3 +3 1007.0 991.5
19 17.01 С 4 20 км 10/6 600 м
[Cu Sc As op]
+7.4 -1.1 55 +4 +4 1005.4 989.9
21 17.01 С 4
{21}
20 км 10/4 1230 м
[Sc As op]
+8.0 -6.3 36 +5 +5 1007.6 992.1
00 18.01 С 7
{17}
20 км 1/0
[Ac trans]
+6.4 -4.5 46 +2 +2 1011.3 995.7
03 18.01 С 3 20 км ясно +5.4 -4.6 48 +3 +3 1013.4 997.7
04 18.01 С 5 20 км ясно +6.6 -7.6 35 +3 +3 1013.8 998.1
05 18.01 С 6 20 км ясно +5.8 -7.0 39 +2 +2 1014.6 998.9
06 18.01 СЗ 3 50 км 1/1 1230 м
[Cu hum]
+5.5 -6.3 42 +3 +3 1015.5 999.7 +5.0
08 18.01 С 2 50 км 1/1 1000 м
[Cu hum]
+6.8 -7.7 35 +5 +7 1016.9 1001.2
07 18.01 ЮЗ 2 50 км 1/1 1000 м
[Cu hum]
+5.4 -6.1 43 +4 +4 1015.9 1000.1
09 18.01 СЗ 3 50 км 1/1 1230 м
[Cu hum]
+7.7 -7.0 34 +6 +8 1017.7 1002.0
10 18.01 ЮЗ 1 50 км 1/1 1000 м
[Cu hum]
+8.9 -6.0 34 +9 +13 1018.3 1002.7
11 18.01 ЮЗ 2 50 км 1/1 1000 м
[Cu hum]
+9.8 -9.1 25 +9 +13 1018.3 1002.7
12 18.01 Ю 4 50 км 1/1 1230 м
[Cu hum]
+10.3 -1.6 43 +8 +11 1017.4 1001.9
14 18.01 Ю 4 50 км 8/0
[Ci sp]
+10.4 +1.0 52 +8 +9 1016.1 1000.6
13 18.01 Ю 3 50 км 1/1 1000 м
[Cu hum]
+10.6 -0.5 46 +9 +11 1016.5 1001.0
15 18.01 Ю 3 45 км 8/0
[Ci sp]
+9.8 +1.2 55 +8 +8 1016.6 1001.1
18 18.01 ЮВ 5 20 км 8/0
[Ci sp]
+8.8 +2.3 64 +6 +6 1016.0 1000.4 +10.8
19 18.01 ЮВ 4 20 км 9/0
[As trans]
+8.7 +2.9 67 +6 +6 1016.1 1000.5
20 18.01 ЮВ 6 20 км 9/0
[Ac As]
+9.0 +3.1 67 +5 +5 1015.9 1000.3
21 18.01 ЮВ 4 20 км 8/0
[Ac As]
+8.9 +2.7 65 +6 +6 1015.9 1000.3
00 19.01 ЮВ 7 20 км ясно +9.0 +1.6 60 +5 +5 1014.4 998.9
03 19.01 В 5 20 км 5/5 1230 м
[Sc]
+8.7 +1.4 60 +6 +6 1013.5 998.0
05 19.01 ЮВ 8 20 км 8/6 1000 м
[Cu Sc]
+9.4 +4.0 69 +5 +5 1013.1 997.6
04 19.01 В 4 20 км 9/9 1000 м
[Sc]
+8.6 +1.8 62 +6 +6 1013.2 997.7
06 19.01 ЮВ 8 20 км 9/9 1230 м
[Cu Sc]
+9.7 +4.6 71 +6 +6 1013.1 997.6 +8.0
07 19.01 ЮВ 9 30 км 6/4 1000 м
[Cu Sc Ac trans]
+10.2 +6.3 77 +6 +6 1012.9 997.5
08 19.01 ЮВ 10 30 км 9/6 1000 м
[Cu Sc Ac As]
+10.1 +6.2 77 +6 +6 1012.7 997.3
09 19.01 ЮВ 11 30 км 9/6 1230 м
[Cu Sc Ac As]
+10.5 +6.0 74 +6 +6 1012.2 996.8
11 19.01 ЮВ 9
{17}
35 км 9/6 1000 м
[Cu Sc Ac As]
+11.1 +7.1 76 +7 +7 1011.8 996.4
10 19.01 ЮВ 10 35 км 9/5 1000 м
[Cu Sc Ac As]
+10.9 +6.4 74 +7 +7 1012.5 997.1
12 19.01 ЮВ 11
{18}
35 км 8/5 1230 м
[Cu Sc Ac As]
+11.8 +7.0 72 +8 +8 1011.2 995.9
13 19.01 ЮВ 11
{18}
35 км 9/5 1000 м
[Cu Sc Ac As]
+12.0 +7.3 73 +8 +8 1010.8 995.5
14 19.01 ЮВ 10
{18}
35 км 9/6 1000 м
[Cu Sc Ac As]
+11.8 +8.1 78 +8 +8 1010.5 995.2
15 19.01 ЮВ 10 35 км 10/8 1230 м
[Cu Sc Ac As]
+11.6 +8.2 80 +8 +8 1010.3 995.0
18 19.01 ЮВ 9 20 км 10/8 1230 м
[Sc As op]
+11.4 +8.6 83 +8 +8 1010.6 995.3 +12.1
20 19.01 ЮВ 7 20 км в посл. час дождь 8/8 1000 м
[Sc]
+11.4 +8.4 82 +8 +8 1009.9 994.6
19 19.01 ЮВ 8 20 км слабый дождь 9/8 600 м
[Sc As op]
+11.4 +8.6 83 +8 +8 1010.6 995.3
21 19.01 ЮВ 5 20 км 5/5 1230 м
[Sc]
+11.6 +8.6 82 +9 +9 1010.0 994.7
00 20.01 С 8 10 км 8/8 1230 м
[Sc]
+7.5 +4.2 80 +3 +3 1010.2 994.7 2
03 20.01 СВ 12-19
{21}
20 км слабый дождь 10/6 800 м
[Sc As op]
+4.7 +2.2 84 -2 -2 1010.8 995.1
04 20.01 В 8 20 км в посл. час дождь 9/9 1000 м
[Sc]
+5.2 +1.8 79 -1 -1 1010.3 994.6
05 20.01 СВ 5 20 км 4/4 1000 м
[Sc]
+5.4 +1.8 78 +1 +1 1010.2 994.5
06 20.01 СВ 5 25 км 4/4 1230 м
[Sc]
+5.8 0.0 66 +2 +2 1010.7 995.0 +4.4 5
08 20.01 СВ 6 50 км 8/5 1500 м
[Sc Ac lent Ci fib]
+7.2 -0.8 57 +3 +3 1011.6 996.0
07 20.01 СВ 6 50 км 5/3 1000 м
[Cu Sc Ac lent Ci sp]
+6.0 -0.1 65 +2 +2 1011.2 995.5
09 20.01 СВ 5 50 км 8/3 1230 м
[Cu Sc Ac lent Ci sp]
+7.5 -0.7 56 +4 +5 1012.0 996.4
10 20.01 СВ 4 50 км 3/1 1000 м
[Cu hum Ci fib]
+8.4 -1.8 49 +6 +8 1012.0 996.5
11 20.01 СВ 2 50 км 1/1 1000 м
[Cu hum Ci sp]
+9.6 -0.4 50 +8 +13 1012.0 996.5
12 20.01 Ю 2 50 км 1/1 1230 м
[Cu hum]
+10.3 +2.5 58 +9 +13 1011.2 995.8
14 20.01 ЮЗ 3 50 км ясно +10.5 +3.0 60 +9 +10 1010.7 995.3
13 20.01 ЮЗ 3 50 км ясно +10.7 +1.7 54 +9 +11 1010.9 995.5
15 20.01 Ю 2 50 км ясно +10.2 +3.6 64 +9 +9 1010.9 995.5
18 20.01 ЮВ 4 20 км 3/0
[Ci sp]
+8.8 +2.6 65 +6 +6 1010.9 995.4 +10.7
19 20.01 ЮВ 4 20 км 3/0
[Ci sp]
+8.2 +3.8 74 +5 +5 1010.8 995.3
20 20.01 ЮВ 5 20 км 3/0
[Ci sp]
+8.4 +3.8 73 +5 +5 1010.6 995.1
21 20.01 ЮВ 8 20 км 3/0
[Ci sp]
+8.2 +5.1 81 +4 +4 1010.2 994.7
00 21.01 В 5 20 км 8/3 1230 м
[Sc Ac trans]
+7.6 +2.4 70 +4 +4 1008.8 993.3
03 21.01 ЮВ 9 20 км 10/8 1230 м
[Cu Sc Ac As]
+9.1 +4.8 74 +5 +5 1006.0 990.6
05 21.01 ЮВ 11
{17}
20 км 10/8 1000 м
[Cu Sc As op]
+10.1 +6.4 78 +6 +6 1003.2 987.9
04 21.01 ЮВ 9
{17}
20 км 10/8 1000 м
[Cu Sc As op]
+9.2 +5.2 76 +5 +5 1004.6 989.2
06 21.01 ЮВ 10
{17}
20 км 10/8 1230 м
[Cu Sc As op]
+10.2 +6.7 79 +6 +6 1003.3 988.0 +7.5
07 21.01 ЮВ 9 25 км слабый дождь 10/8 600 м
[Frnb As op]
+9.9 +7.4 84 +6 +6 1002.7 987.4
08 21.01 ЮЗ 4 15 км слабый дождь 10/6 600 м
[Frnb As op]
+9.6 +7.3 86 +7 +7 1003.4 988.1
09 21.01 З 4 15 км слабый дождь 10/1 450 м
[Frnb As op]
+8.1 +6.1 87 +5 +5 1003.9 988.5
11 21.01 СВ 2 30 км слабый дождь 9/4 600 м
[Cu Sc As op]
+8.1 +6.3 88 +6 +7 1003.4 988.0
10 21.01 С 3 15 км слабый дождь 10/3 300 м
[Frnb As op]
+7.9 +6.5 91 +5 +6 1003.9 988.5
12 21.01 СЗ 1 50 км {дождь} 8/6 1230 м
[Cu Sc Ac trans Ci sp]
+9.2 +6.2 81 +9 +10 1003.0 987.7 5
13 21.01 СЗ 2 50 км 8/6 600 м
[Cu Sc Ac trans]
+10.2 +5.4 72 +9 +10 1003.0 987.7
14 21.01 СЗ 4 50 км 4/4 1000 м
[Cu Sc]
+10.3 +4.9 69 +8 +8 1003.3 988.0
15 21.01 СЗ 5 50 км 3/3 1230 м
[Cu hum]
+10.5 +3.0 60 +8 +8 1004.3 989.0
18 21.01 СВ 6
{19}
20 км 3/1 1230 м
[Cu hum Ac trans Ci sp]
+9.2 -4.2 39 +6 +6 1007.6 992.2 +10.8 5
20 21.01 С 8 20 км 4/1 1000 м
[Cu hum Ac trans]
+8.5 -5.4 37 +5 +5 1010.0 994.5
19 21.01 СВ 3 20 км 6/4 1000 м
[Sc Ac trans]
+9.1 -4.8 37 +7 +7 1008.7 993.2
21 21.01 СВ 10
{20}
20 км 1/1 1230 м
[Cu hum]
+8.0 -5.9 37 +3 +3 1010.8 995.2
00 22.01 С 9-15
{25}
20 км ясно +6.8 -6.0 40 +2 +2 1012.1 996.5
03 22.01 СВ 13
{25}
20 км ясно +5.2 -9.3 34 -1 -1 1012.9 997.2
04 22.01 СВ 11
{26}
20 км ясно +5.0 -9.7 34 -1 -1 1013.4 997.6
05 22.01 СВ 12
{23}
20 км ясно +4.7 -9.8 34 -1 -1 1014.3 998.5
06 22.01 СВ 7-15
{26}
50 км 1/0
[Ac lent]
+4.5 -10.5 33 1015.3 999.5 +4.4
08 22.01 В 4 50 км ясно +4.8 -9.7 34 +2 +3 1016.9 1001.1
07 22.01 СВ 10
{17}
50 км ясно +4.5 -9.7 35 -1 -1 1015.8 1000.0
09 22.01 СВ 7
{19}
50 км 3/0
[Ci fib]
+5.1 -9.6 34 +1 +1 1016.7 1000.9
10 22.01 СВ 10 50 км 1/0
[Ci fib]
+5.6 -9.1 34 0 +1 1016.2 1000.4
11 22.01 СВ 9
{17}
50 км 3/0
[Cs]
+7.4 -7.5 34 +3 +3 1015.2 999.5
12 22.01 Ю 2 50 км 3/0
[Cs]
+8.3 -6.7 34 +7 +11 1014.7 999.1
14 22.01 ЮЗ 3 50 км 3/0
[Cs]
+8.6 -5.3 37 +7 +8 1014.6 999.0
13 22.01 ЮЗ 3 50 км 3/0
[Cs]
+8.6 -5.3 37 +7 +9 1014.2 998.6
15 22.01 ЮЗ 2 50 км 8/0
[Cs]
+8.3 -4.3 41 +7 +7 1014.6 999.0
20 22.01 СЗ 4 20 км 8/0
[Cs]
+6.9 -4.4 44 +4 +4 1015.3 999.6
21 22.01 С 2 20 км 5/0
[Ci sp]
+6.7 -4.7 44 +5 +5 1015.4 999.7
00 23.01 СВ 2 20 км 9/0
[As trans]
+6.1 -7.3 38 +5 +5 1015.3 999.6

 

Местоположение метеостанции Split-Marjan (Хорватия): широта 43.52 долгота 16.43 высота над уровнем моря 128 м.

В архиве по умолчанию представлена погода в Split-Marjan за последнюю неделю. Архивные данные за месяц целиком и за предыдущие месяцы, начиная с января 2011 года, Вы можете получить, выбрав интересующий диапазон дат из раскрывающегося списка и нажав кнопку "Ввод!".

Внимание! Время в таблицах - всемирное. Для получения местного времени необходимо прибавить поправку, которая в Split-Marjan равна 1 ч.

Смотрите также архив погоды в соседних городах и на ближайших метеорологических станциях:

Погода в Split-Resnik (Хорватия) (11 км)
Погода в Hvar (Хорватия) (39 км)
Погода в Sibenik (Хорватия) (47 км)
Погода в Makarska (Хорватия) (55 км)
Погода в Livno (Босния и Герцеговина) (59 км)
Погода в Komiza (Хорватия) (59 км)
Погода в Lastovo (Хорватия) (92 км)
Погода в Ploce (Хорватия) (98 км)
Погода в Bugojno (Босния и Герцеговина) (104 км)
Погода в Zadar Zemunik (Хорватия) (108 км)

Пояснения к столбцам:

Ветер - указаны скорость ветра в м/с - средняя за 10 мин, порывы в срок и между сроками (в фигурных скобках) и направление, откуда дует ветер: С - северный, СВ - северо-восточный, В - восточный, ЮВ - юго-восточный, Ю - южный, ЮЗ - юго-западный, З - западный, СЗ - северо-западный.
Видимость - горизонтальная дальность видимости в метрах или километрах. При видимости от 1 до 10 км при отсутствии осадков обычно наблюдается дымка, при ухудшении видимости до 1 км и менее - туман. В сухую погоду видимость может ухудшаться дымом, пылью или мглою.
Явления - указаны атмосферные явления, наблюдавшиеся в срок или в последний час перед сроком; фигурными скобками обозначены явления, наблюдавшиеся между сроками (за 1-3 часа до срока); квадратными скобками обозначены град или гололедные отложения с указанием их диаметра в мм.
Облачность - указаны через наклонную черту общая и нижняя облачность в баллах и высота нижней границы облаков в метрах; квадратными скобками обозначены формы облаков: Ci - перистые, Cs - перисто-слоистые, Cc - перисто-кучевые, Ac - высококучевые, As - высокослоистые, Sc - слоисто-кучевые, Ns - слоисто-дождевые, Cu - кучевые, Cb - кучево-дождевые. Подробнее классификацию облаков см. в Атласе облаков (PDF).
T - Температура воздуха - температура, измеренная на высоте 2 м над землей.
Td - Температура точки росы - температура, при понижении до которой содержащийся в воздухе водяной пар достигнет насыщения.
f - Относительная влажность воздуха - влажноcть воздуха, измеренная на высоте 2 м над землей.
Te - Эффективная температура - температура, которую ощущает одетый по сезону человек в тени. Характеристика душности погоды. При расчете учитывается влияние влажности воздуха и скорости ветра на теплоощущения человека.
Tes - Эффективная температура на солнце - температура, которую ощущает человек, с поправкой на солнечный нагрев. Характеристика знойности погоды. Зависит от высоты солнца над горизонтом, облачности и скорости ветра. Ночью, в пасмурную погоду, а также при ветре 12 м/с и более поправка равна нулю.
P - Атмосферное давление - приведенное к уровню моря атмосферное давление.
Po - Атмосферное давление - измеренное на уровне метеостанции атмосферное давление.
Tmin - Минимальная температура - минимум температуры воздуха на высоте 2 м над землей.
Tmax - Максимальная температура - максимум температуры воздуха на высоте 2 м над землей.
R - Количество осадков - Количество выпавших осадков за период времени, мм. При наведении курсора мыши на число - период времени, за который выпало указанное количество осадков.
R24 - Количество осадков - Количество выпавших осадков за 24 часа, мм.
S - Снежный покров - Высота снежного покрова, см. При наведении курсора мыши на число - состояние снежного покрова и степень покрытия местности в баллах.